STARLINK-32809, 62849

Orbit data source: Space-Track

STARLINK-32809, 62849 is a payload satellite owned by SpaceX/Seattle (US) in LEO that was launched on Mon, 27 Jan 2025 UTC via an FALCON 9 launch vehicle from the Air Force Eastern Test Range (AFETR). Payload-class satellites include a variety of spacecraft equipped with specific instruments for various scientific and technological missions. These include communications satellites like Starlink; space stations such as the ISS; scientific satellites like the Hubble; Earth observation satellites from companies like Planet Labs, Umbra, and HawkEye 360; GPS; miniature CubeSats for education and research; and military/defense satellites.

Loading next visibility...
Identifier
62849, 2025-019W
Orbit
LEO
Country
Flag of USUS
Related business
Manufacturer
SpaceX/Seattle
Mission
Operational Commercial Communications
Bus & Motor
STARLINK V2M, Unknown motor
Mass
730 kg wet, ~700 kg dry
Launch date (UTC)
2025-01-27 (8 months ago)
Launch vehicle
FALCON 9
Launch site
Air Force Eastern Test Range (AFETR)
Object type
Payload
Rocket body
Debris
Shape & HBR
Box + 2 Pan, 14.5 m
Radar Cross Section
33.884 m², Large (>1 m²)

Expand to show TLE details & history
Last TLE update: 18 hours ago

TLE from 18 hours ago
0 STARLINK-32809
1 62849U 25019W   25260.27953165  .00025467  00000-0  93186-3 0  9993
2 62849  42.9978 348.0011 0003077 282.2227  77.8280 15.27575295 35737
Epoch: 2025-09-17T06:42Z
TLE epoch observation values (Epoch: 2025-09-17T06:42:31.534Z)
Latitude
-0.00001°
Longitude
-109.08806°
Altitude
482.394 km
Speed
7.626 km/s
True Right ascension
23h 12m 00s
True Declination
0° 00' 00"
Sunlit
Object was in full shadow at epoch
Visualization orbit readout
Latitude
Unknown
Longitude
Unknown
Altitude
Unknown
Speed
Unknown
Apparent Right ascension
Unknown
Apparent Declination
Unknown
Sunlit
N/A
Visualization observer readout
Local Sidereal Time
17:41:47
Azimuth
Unknown
Elevation
Unknown
Doppler factor
Unknown
Orbital elements
Apogee altitude
487.121 km
Perigee altitude
482.897 km
Semi-major axis
6,863.146 km
Eccentricity
0.00031
Inclination
42.9978°
RAAN
348.0011°
Arg. of periapsis
282.2227°
True anomaly
77.86247°
Mean anomaly
77.828°
Eccentric anomaly
77.84523°
Mean motion
3.81732 °/min
Orbital period
94.31 mins
BSTAR
0.00093186
Loading maneuver chart data...
Computing Atmospheric mass density...
Loading historical data...
Loading historical data...
Loading historical data...
Loading historical data...
Loading historical data...
Loading historical data...
Loading historical data...

Documentation

Showing up to 5 results
|